This is the latest recevied weather packets stored in our database for station/object SQ7FJB-2. If no packets are shown the sender has not sent any weather packets the latest 10 day(s).
| Time | Temp. | Humidity | Pressure | Rain* | Wind** | Luminosity | Snow |
|---|---|---|---|---|---|---|---|
| 1777574096 | 8.89° C | 56% | 1026.6 hPa | 0 mm | - | - | - |
| 1777573484 | 9.44° C | 57% | 1026.6 hPa | 0 mm | - | - | - |
| 1777572872 | 9.44° C | 50% | 1026.6 hPa | 0 mm | - | - | - |
| 1777572260 | 10° C | 49% | 1026.4 hPa | 0 mm | - | - | - |
| 1777571659 | 10° C | 47% | 1026.3 hPa | 0 mm | - | - | - |
| 1777571059 | 10° C | 47% | 1026.3 hPa | 0 mm | - | - | - |
| 1777570447 | 10° C | 45% | 1026.3 hPa | 0 mm | - | - | - |
| 1777569847 | 10.56° C | 44% | 1026.3 hPa | 0 mm | - | - | - |
| 1777569235 | 11.11° C | 42% | 1026.3 hPa | 0 mm | - | - | - |
| 1777568634 | 11.67° C | 43% | 1026.4 hPa | 0 mm | - | - | - |
| 1777568034 | 11.67° C | 44% | 1026.3 hPa | 0 mm | - | - | - |
| 1777567422 | 11.67° C | 39% | 1026.4 hPa | 0 mm | - | - | - |
| 1777566809 | 11.67° C | 37% | 1026.3 hPa | 0 mm | - | - | - |
| 1777566197 | 11.67° C | 39% | 1026.3 hPa | 0 mm | - | - | - |
| 1777565597 | 11.67° C | 38% | 1026.4 hPa | 0 mm | - | - | - |
| 1777564996 | 11.67° C | 39% | 1026.5 hPa | 0 mm | - | - | - |
| 1777564384 | 11.11° C | 38% | 1026.5 hPa | 0 mm | - | - | - |
| 1777563784 | 11.67° C | 39% | 1026.6 hPa | 0 mm | - | - | - |
| 1777563172 | 11.11° C | 38% | 1026.6 hPa | 0 mm | - | - | - |
| 1777562560 | 11.11° C | 37% | 1026.6 hPa | 0 mm | - | - | - |
| 1777561947 | 11.67° C | 37% | 1026.7 hPa | 0 mm | - | - | - |
| 1777561347 | 11.67° C | 36% | 1026.7 hPa | 0 mm | - | - | - |
| 1777560735 | 12.22° C | 33% | 1026.8 hPa | 0 mm | - | - | - |
| 1777559534 | 11.67° C | 33% | 1026.9 hPa | 0 mm | - | - | - |
| 1777558921 | 11.67° C | 35% | 1026.9 hPa | 0 mm | - | - | - |
* Rain latest hour (hover to see other rain measurements)
** Current wind speed in m/s (hover to see current wind gust speed)